| DS18B20 | SHTC3 | PZEM-004T | WiFi | ||||||||
|---|---|---|---|---|---|---|---|---|---|---|---|
| ID | Date d/m/Y & Time | data1 สูง | data2 ต่ำ | data3 นอก | temp pcb | hum pcb | Volt | Amp | Watt | rssi | Time |
| 16741 | 28/08/2026 10:37:22 | 33.1  | 30.9  | 32.6  | 33.5  | 60.9  | 230.2  | 0.04  | 4.5  | -60  | 10:37 |
| 16740 | 28/08/2026 10:32:39 | 33.0  | 30.9  | 32.6  | 33.3  | 61.0  | 231.5  | 0.04  | 4.5  | -61  | 10:32 |
| 16739 | 28/08/2026 10:27:56 | 32.9  | 30.8  | 32.7  | 33.3  | 61.3  | 231.5  | 0.04  | 4.5  | -62  | 10:27 |
| 16738 | 28/08/2026 10:23:12 | 32.8  | 30.8  | 32.4  | 33.3  | 61.3  | 231.4  | 0.04  | 4.5  | -61  | 10:23 |
| 16737 | 28/08/2026 10:18:29 | 32.8  | 30.7  | 32.2  | 33.1  | 61.3  | 231.5  | 0.04  | 4.6  | -61  | 10:18 |
| 16736 | 28/08/2026 10:13:45 | 32.7  | 30.6  | 32.4  | 33.1  | 61.4  | 231.4  | 0.04  | 4.5  | -61  | 10:13 |
| 16735 | 28/08/2026 10:09:02 | 32.6  | 30.6  | 32.3  | 33.0  | 61.7  | 230.6  | 0.04  | 4.6  | -61  | 10:09 |
| 16734 | 28/08/2026 10:04:19 | 32.5  | 30.5  | 32.1  | 33.0  | 61.8  | 231.8  | 0.04  | 4.5  | -62  | 10:04 |
| 16733 | 28/08/2026 09:59:35 | 32.3  | 30.4  | 32.3  | 32.6  | 61.6  | 231.6  | 0.04  | 4.5  | -61  | 09:59 |
| 16732 | 28/08/2026 09:54:52 | 32.2  | 30.4  | 32.0  | 32.6  | 62.0  | 231.9  | 0.04  | 4.5  | -61  | 09:54 |
| 16731 | 28/08/2026 09:50:08 | 32.1  | 30.3  | 31.5  | 32.6  | 62.1  | 230.6  | 0.04  | 4.5  | -61  | 09:50 |
| 16730 | 28/08/2026 09:45:25 | 31.9  | 30.3  | 31.5  | 32.4  | 62.2  | 230.8  | 0.04  | 4.5  | -60  | 09:45 |
| 16729 | 28/08/2026 09:40:41 | 31.9  | 30.2  | 31.0  | 32.5  | 62.2  | 232.0  | 0.04  | 4.5  | -62  | 09:40 |
| 16728 | 28/08/2026 09:35:57 | 31.8  | 30.2  | 30.9  | 32.3  | 62.3  | 232.1  | 0.04  | 4.5  | -61  | 09:35 |
| 16727 | 28/08/2026 09:31:14 | 31.8  | 30.1  | 30.7  | 32.2  | 62.4  | 232.1  | 0.04  | 4.5  | -61  | 09:31 |
| 16726 | 28/08/2026 09:26:30 | 31.7  | 30.1  | 30.7  | 32.2  | 62.5  | 231.7  | 0.04  | 4.5  | -61  | 09:26 |
| 16725 | 28/08/2026 09:21:47 | 31.6  | 30.1  | 30.7  | 32.1  | 62.7  | 231.1  | 0.04  | 4.5  | -61  | 09:21 |
| 16724 | 28/08/2026 09:17:04 | 31.6  | 30.0  | 30.7  | 32.1  | 62.8  | 232.0  | 0.04  | 4.5  | -62  | 09:17 |
| 16723 | 28/08/2026 09:12:20 | 31.4  | 30.0  | 30.5  | 32.0  | 62.8  | 231.3  | 0.04  | 4.5  | -61  | 09:12 |
| 16722 | 28/08/2026 09:07:36 | 31.4  | 29.9  | 30.4  | 32.0  | 63.0  | 231.2  | 0.04  | 4.5  | -62  | 09:07 |
| 16721 | 28/08/2026 09:02:53 | 31.3  | 29.9  | 30.2  | 32.0  | 63.1  | 231.8  | 0.04  | 4.5  | -62  | 09:02 |
| 16720 | 28/08/2026 08:58:09 | 31.2  | 29.9  | 30.3  | 31.7  | 63.1  | 229.8  | 0.04  | 4.5  | -61  | 08:58 |
| 16719 | 28/08/2026 08:53:26 | 31.2  | 29.9  | 30.0  | 31.8  | 63.2  | 230.1  | 0.04  | 4.5  | -62  | 08:53 |
| 16718 | 28/08/2026 08:48:42 | 31.1  | 29.8  | 30.0  | 31.7  | 63.3  | 229.2  | 0.04  | 4.5  | -61  | 08:48 |